Race Results for
2012 Tyler SpeedWaves™ p/b Richardson Bike Mart
Tyler, TX
(Event Information)
View By:
Cross Country on 11/11/2012

Note: Ranking points are NOT upgrade points. An explanation of ranking points can be found here.


Men - SS 2/3

 Place Points NameCity, StateTime USAC #BibTeam
1Dustin Waller   00:59:15  648 
2545.17Charles Pipes   Brownsboro, TX00:59:34 393344  743 
3560.11Chris McClung   Bruceville, TX01:05:35 388508  741 Bicycles Outback p/b Jubilee Mitsubishi
4575.05Jeff Herrin   Plano, TX01:08:12 366863  800 MTP Bike Club
5Paul Herndon   01:33:25  767 

Men - SingleSpeed Open

 Place Points NameCity, StateTime USAC #BibTeam
1540.00Larry Price   Mckinney, TX01:21:54 28693  127 Tile Roofs of Texas/Bike Barn
2Jared Haney   01:25:03  144 
3Jeffery Troyer   01:25:24  34 
4590.01John Maccurdy   Houston, TX01:27:48 202644  152 Jaun Solo Racing / Niner Bikes

Men - Pro/Cat 1

 Place Points NameCity, StateTime USAC #BibTeam
1270.72Tristan Uhl   Austin, TX01:35:41 168160  15 ATC Racing
2299.33Rick Wetherald   Logan, UT01:38:12 188971  16 Toobin - The Ultimate Water Sport
3327.94Carson Lange   Lakeway, TX01:39:25 349134  17 787 Racing
4356.55Ian Moore   Waco, TX01:43:57 24916  14 Bicycles Outback
5385.16Craig Kunz   Austin, TX01:44:16 124975  12 Team Bicycle Sport Shop
6413.77Joshua de Boisblanc   Austin, TX01:45:19 316522  11 Team Bicycle Sport Shop
DNSAndrew Dahlheim (Pro)   Dallas, TXDNS 188572  10 BISSELL Pro Cycling/Cap Carter Racing

Men - Cat 1 - 15-18

 Place Points NameCity, StateTime USAC #BibTeam
1Boone Flynn   01:18:14  31 What's the Buzz Coffee Co.
2488.70John R Madden   Houston, TX01:23:01 329156  106 Sugar Cycles
3556.30Rob Sandusky   Frisco, TX01:29:45 291129  107 Matrix/RBM

Men - Cat 1 - 19-39

 Place Points NameCity, StateTime USAC #BibTeam
1370.11Eric Sutton   Sugar Land, TX01:45:19 272155  ENGERYLAB/LIEBTECH
2385.55Robby Ketterhagen   Georgetown, TX01:46:06 337506  29 787 Racing
3400.99Billy Cook   Mckinney01:46:47 366602  957 Bicycle Plus
4416.43Steve Etherton   Austin, TX01:46:49 271761  Cycle Progression
5431.87Todd Gearhart   Dallas, TX01:47:00 340206  965 Hub Racing
6447.31Cody Taylor   Shreveport, LA01:49:27 331342  35 Team LaS'port
7462.75Matthew Sappington   Round Rock, TX01:54:13 358266  30 Austin Bikes/Revenant
8478.19James Webb   Kyle, TX01:55:46 199834  28 Mafia Racing
DNFPhillip Haigh   DallasDNF 359282  18 Dallas Bike Works
DNFTimothy Spence   AustinDNF 269816  27 Mafia Racing / Felt / PBR
DNFRichard Hellberg   Dallas, TXDNF 366128  26 Dallas Bike Works / Hooters

Men - Cat 1 - 40-49

 Place Points NameCity, StateTime USAC #BibTeam
1322.24John Madden   Houston, TX01:17:59 308953  137 Tile Roofs of Texas/Bike Barn
2331.35Mick McDonald   Houston, TX01:18:56 23403  138 Corey's Nice Bikes
3340.46Carlos Uranga   Irving, TX01:20:57 325182  145 PACC
4349.57Don Booker   Sachse, TX01:21:31 178241  132 PAAC
5358.68Super Dave Esper   Cedar Park, TX01:22:27 153692  135 512 Racing / AJ's
6367.79David Mackey   Magnolia, TX01:23:01 205028  136 Team Bike Lane
7376.90Vaughn Cavanaugh   Houston, TX01:24:26 194241  128 Tiles Roofs of Texas/Bike Barn
DNSHirem Bruno   Spring, TXDNS 290110  133 Team Bike Lane / WCCRT
DNFJohn Meegan   Cibolo, TXDNF 188387  139 Bike World Racing
DNFBrad Price   Mc Kinney, TXDNF 178625  153 McKinney Velo

Men - Cat 1 - 50-59

 Place Points NameCity, StateTime USAC #BibTeam
1360.69Steve Houlbjerg   Kennedale, TX01:20:35 16827  193 Colonel's / Sho-Air
2369.32Brian Zettner   San Antonio, TX01:20:45 186298  198 Team Sage Cycles
3377.95Steve Minnerly   Frisco, TX01:22:05 114399  157 PACC
4386.58Mark Johnson   Plano, TX01:22:39 365838  194 Team PACC
5395.21Tony Sturdivant   San Angelo, TX01:23:51 269518  196 Concho Bike Hanks Racing
6403.84Paul Forderhase   Austin, TX01:24:28 73177  156 Monkey Wrench Bikes
7412.47Kevin Highfield   Spring, TX01:28:21 218694  130 Southern Elite/Sun & Ski Sports/PARD
8421.10John Worzel   Spring, TX01:30:16 325610  197 Southern Elite/Sun & Ski Sports/PARD
DNFScott Schaefer   Houston, TXDNF 126923  195 Southern Elite/Sun&Ski
DNFPhillip Bird   Anna, TXDNF 245630  191 Team Wicked
DNFSergio Godinez   Grapevine, TXDNF 168145  192 Mad Duck

Men - Cat 1 - 60-99

 Place Points NameCity, StateTime USAC #BibTeam
1448.33Rolf Laub   Houston, TX01:27:43 106296  154 Bike Sport
2460.48Tyler Simpson   Whitehouse, TX01:31:17 32780  143 Simpson Sports
3472.63Bill Moreman   Arlington, TX01:35:10 84650  142 Bicycles Inc.
4484.78Frederic Schmid   Waco, TX01:38:29 109257  129 Bicycles Outback p/b Jubilee Mitsubishi
5496.93Mark Hargis   Grapevine, TX01:39:12 140813  141 Bicycles Inc.
6509.08Bo Kral   Beaumont, TX01:42:02 129177  110 
7521.23Richard Suggs   Nacogdoches01:51:32 138422  155 Nacogdoches Bike Club
DNSStanley Ford   Crowley, TXDNS 286295  140 Bicycles Inc

Men - Cat 2 - 15-18

 Place Points NameCity, StateTime USAC #BibTeam
1Charles Hoster   Frisco, TX01:34:44 265930  654 PACC
2Austin Wagner   Burleson, TX01:38:33 336530  661 Richardson Bike Mart/Matrix
DNSEthan Storm   Arlington, TXDNS 341794  597 Matrix / Richardson Bike Mart
DNFPeter Drury   DNF  639 Bicycles Plus

Men - Cat 2 - 19-34

 Place Points NameCity, StateTime USAC #BibTeam
1Chris Wright   01:22:08  645 Cadence Cyclery
2Rico Vasquez   01:23:30  771 
3451.94Lee Freeman   Waco, TX01:23:30 364769  603 Bicycles Outback p/b Jubilee Mitsubishi
4464.49Brian Jett   Austin, TX01:23:59 326286  647 The Peddler
5477.04Zach Ross   Houston , TX01:25:29 310652  666 Bike Barn
6489.59Thomas Sebring   Round Rock, TX01:28:34 349588  606 512 Racing p/b AJ's Cyclery
7502.14Aaron Anderson   Frisco, TX01:28:49 385640  663 PACC
8514.69Armando Espinosa Jr.   Clear Lake01:29:47 369239  644 HCC Cycling Team
9Adam B. Bryand   01:32:19  643 
10Rodman Reyes   01:33:54  660 
11552.34Aaron Daugherty   Krum, TX01:33:55 391258  602 The Bicycle Path
12564.89Mark Montebello   Lumberton, TX01:36:19 388402  604 Bronze Body/Kinsel Ford
13577.44Jesse Bernal   Denton, TX01:41:22 385241  601 Bicycles Plus
14589.99Jeremy Reyna   Katy, TX01:44:27 242721  605 Bikesport/ION
DNFKeith Rohr   Ellicott City, MDDNF 58114  658 Rock Solid

Men - Cat 2 - 35-44

 Place Points NameCity, StateTime USAC #BibTeam
1416.29Dale Dawson   Arlington, TX01:20:37 377743  609 Team PACC
2Mike Hanson   01:23:57  613 Simpsons Fitness
3436.01Troy Anderson   Dallas01:24:56 341138  669 PACC
4445.87Clayton Perriraz   Conroe, TX01:25:22 342024  617 Cap Carter Racing
5455.73Joey Gabel   Grapevine, TX01:25:44 381425  612 Dallas Bike Works
6465.59Dan Tarkanick   Flower Mound, TX01:26:05 352864  621 Team PACC
7David Wilson   01:26:39  622 Monkey Wrench Racing
8485.31Scott Schmidt   Frisco, TX01:26:52 313584  619 Frisco Cycling Club / Cap Carter Racing
9Brandon Stewart   01:27:48  657 Rock Solid
10505.03Scott McGowan   Canton, TX01:27:59 23494  668 Canton Power Sports
11514.89Frank Etier   Savannah, TX01:28:47 384353  611 Bicycle Run Path
12524.75Darryl Rosenfeld   Bellaire, TX01:29:50 255458  618 Tile Roofs of Texas/Bike Barn
13534.61Jeff Soape   Longview, TX01:30:37 138940  620 Team Wooley G's
14544.47Lucas Hilbrich   League City, TX01:30:52 394602  614 Texas Pro Health Racing
15554.33Joe Ender   Manchaca, TX01:31:54 10783  610 Monkey Wrench Racing
16Billy Ray Cloer   01:32:31  608 
17574.05Marc Mendoza   Smithville, TX01:46:04 311234  970 Bikeland Developmental Factory Team
DNFRodger Nutt   Mckinney, TXDNF 346402  616 McKinney Velo
DNFDavid Beverly   Irving, TXDNF 138824  607 Central Texas Powersports

Men - Cat 2 - 45-99

 Place Points NameCity, StateTime USAC #BibTeam
1488.41Scott McCoy   Waxahachie, TX01:25:15 366126  665 
2494.67Patrick Stephens   Longview, TX01:27:06 110518  667 Bike & Fitness
3500.93Frank Stich   Coppell, TX01:28:04 327594  664 FCS Cycling
4Joel Jimenez   01:28:51  659 Team WOLF
5513.45Chris Olson   Houston, TX01:29:32 26709  651 
6519.71Matthew Tinonga   Plano, TX01:30:17 35626  656 Team PACC
7525.97Jim Olmsted   Waco, TX01:30:34 370548  632 
8532.23John Markham   Plano, TX01:31:16 394099  653 PACC
9538.49Steve Courtney   Plano, TX01:31:26 199656  650 Eminent Spine
10544.75Dennis Livingston   Red Oak, TX01:31:46 185910  631 VentureExpeditions.org
11551.01Tom Ketterhagen   Georgetown, TX01:32:18 334056  646 787 Racing
12557.27Alex Link   Dallas, TX01:34:38 190280  649 PACC
13563.53Andrew Kelsey   Flower Mound01:35:52 143516  630 
14569.79John Dowling   Seabrook, TX01:36:34 318478  627 enviroINKS.com/Bike Route
15John Flynn   01:39:29  655 What's the Buzz Coffee Co
16582.31Gus Bruna   Spring, TX01:43:37 368636  624 Bike Lane
DNSGeorge Heagerty   San Antonio, TXDNS 72892  628 Geri Atrix
DNFDavid Dederichs   Mckinney, TXDNF 343156  626 McKinney Velo
DNFFrancisco Cano   Sugar Land, TXDNF 366415  625 EnviroInks/Bike Route
DNFJay James   Dallas, TXDNF 395277  629 Occam's Racer
DNFTim Pletcher   Austin, TXDNF 216259  633 Kelly's Team
DNFPaul Breemen   Huffman, TXDNF 375754  623 EnviroInks/Bike Route
DNFJames Ramsaur   Ruston, LADNF 29095  634 Piney Hill Cyclist

Men - Cat 3 - 1-10

 Place Points NameCity, StateTime USAC #BibTeam
1441.77Ian Petko   Spring, TX00:16:39 377764  429 Unlimited Sports Adventure
2Dawson Layne   00:16:40  428 
3465.95Connor Rainey   Waco, TX00:19:06 366959  430 Bicycles Outback p/b Jubilee Mitsubishi
4478.04Layton Ondrias   San Antonio00:19:47 396657  510 Hostile
5490.13Ethan Adams   San Antonio, TX00:21:42 376227  520 Hostile
6Jose Ketterhagen   00:23:12  521 
7Jackson Gabel   00:29:07  500 Dallas Bike
8526.40Maxwell Anderson   Hartford, WI00:29:44 178840  526 Bicycles Outback p/b Jubilee Mitsubishi
8526.40Ian Boche   Kilgore, TX00:29:44 391003  427 
10Hunter Schneider   00:32:52  431 Nitrocross BMX
11562.67Nick Price   West Lawn, PA00:34:20 169174  524 MVC
12574.76Jack Price   San Gabriel, CA00:35:50 48652  522 MVC
13Sam Price   00:43:48  525 MVC
DNFCarson Owens   DNF  495 
DNFLuke Price   DNF  523 MVC

Men - Cat 3 - 11-12

 Place Points NameCity, StateTime USAC #BibTeam
1437.40Blake Pilgrim   Forney, TX00:31:22 366570  61 Richardson Bikemart/Matrix JR
2468.18Aidan Bond   San Antonio, TX00:31:29 329966  60 Hill Country Bicycle Works
3David Pipes   00:31:29  66 
4529.74Will Sharp   Katy, TX00:33:54 385678  65 
DNFCamden Owens   DNF  64 

Men - Cat 3 - 13-14

 Place Points NameCity, StateTime USAC #BibTeam
1452.88Mauricio Garcia   Miami, FL01:01:42 139327  732 Sun & Ski Sports
2462.45Thomas Madden   Houston, TX01:02:08 329158  734 Tile Roofs of Texas/Bike Barn Houston
3472.02Harrison Worzel   Spring, TX01:04:42 349314  739 Southern Elite/Sun & Ski Sports/PARD
4481.59Logan Rainey   Waco, TX01:09:43 366961  737 Bicycles Outback p/b Jubilee Mitsubishi
5Alex Vasquez   01:09:45  770 
6Dylan Layne   01:10:52  733 Bikeland Developmental Factory Team
7510.30John Ketterhagen   Georgetown01:10:53 402675  596 
8519.87Dalton Walters   Richardson, TX01:13:11 387471  764 Jesuit High School
9529.44Channing Washlesky   Dallas, TX01:13:59 388205  749 Jesuit High School
10539.01Austin Schneider   Houston, TX01:25:39 381524  738 Northwest Cycling Club
11548.58Nash Lilly   Irving, TX01:30:10 341232  756 Matrix RBM
12Peter Bond   01:34:10  731 Bike World Racing/Lopez Middle School
DNSTrevor Meegan   DNS  735 Bike World Racing
DNSBrendan Odom   DNS  736 

Men - Cat 3 - 15-18

 Place Points NameCity, StateTime USAC #BibTeam
1Daniel Farrell   01:01:39  744 Team Wooley G's
2487.65Dakota Burklund   San Marcos, TX01:01:58 296255  763 Team Bicycle Sport Shop
3498.36Zach Smitherman   Garland, TX01:04:18 396470  704 RBM Matrix/Sachse High School
4Quintin Deller   01:05:20  772 
5519.78Zachary Yates   Rowlett, TX01:09:19 369871  705 RBM / Matrix / Sachse HS
6530.49Tyler Rock   Sachse01:10:06 401358  702 RBM/Matrix/Sachse High School
7Charlie Satterthwaite   01:20:09  703 RMB Matrix/Sachse High School
8551.91Ryan Gustafson   Rowlett, TX01:36:56 395525  701 RBM Matrix/Sasche High
DNSCooper Dawson   DNS  700 Team Mon and Dad
DNFJames Markel   DNF  750 Jesuit

Men - Cat 3 - 19-34

 Place Points NameCity, StateTime USAC #BibTeam
1459.98Ramon Fierros   Katy, TX00:57:52 339980  799 EnviroInks/Bike Route
2David Peterson   00:58:00  716 RBM Matrix / Sashse HS
3472.80Justin Carver   Austin00:59:35 377048  706 Bike Barn (Texas)
4479.21Matt Anderson   Waco, TX00:59:36 159192  752 Bicycles Outback p/b Jubilee Mistsubishi
5485.62John Kite   Kingwood Tx00:59:39 391738  712 
6492.03Bobby Ketchum   Houston, TX01:00:09 391641  711 
7Christopher Rymal   01:01:09  717 
8504.85Ian McMahon   Spring, TX01:02:47 367302  751 
9Chad Anderson   01:05:07  766 
10517.67Steven Mugridge   Kingwood01:06:19 390360  714 
11David Hernandez   01:07:19  710 
12530.49Andrew Myers   Kerrville, TX01:07:20 365999  715 Team Twin Six
13Tim Fauss   01:09:21  775 
14Justin Marsteller   01:15:58  768 
15Phillip Stanley   01:18:44  740 
16Stephen Scank   01:29:26  718 
17Wladimir Moquete   01:40:58  713 AupaZ
DNFLance Eitel   DNF  762 
DNFMiguel Cortez   Fort Worth , TXDNF 364709  707 
DNFRaul Henao   Houston, TXDNF 395856  709 

Men - Cat 3 - 35-44

 Place Points NameCity, StateTime USAC #BibTeam
1487.86Heath Wade   Flower Mound, TX00:58:20 385202  726 
2495.41Carl Owens   Longview, TX00:58:59 388150  723 Team Wooley G's
3M Alvarez   00:59:57  719 Extreme Customs
4Brent Cutler   01:00:52  721 
5518.06Steve Dawson   Grand Prairie, TX01:02:24 384954  722 PACC
6525.61Mark Anderson   Robinson01:02:57 368687  746 Bicycles Outback p/b Jubilee Mitsubishi
7533.16Brian Phillips   Tyler, TX01:03:47 389765  724 
8540.71Chris Sechelski   Houston, TX01:06:31 393549  725 GHORBA.org
9548.26Humberto Villanueva   Plano, TX01:06:40 393573  773 
10555.81Carlos Barrios   Houston, TX01:08:49 294738  720 AUPAZ
11Wade Jacob Nelson   01:13:24  761 
12Chris Rayburn   01:15:43  760 
13Chris Jones   01:21:18  755 Sun Country Bikes
14586.01Robert Yates   Rowlett, TX01:27:27 358226  747 RBM/Matrix

Men - Cat 3 - 45-99

 Place Points NameCity, StateTime USAC #BibTeam
1534.90Stephen Johnston   Longview, TX01:01:35 272253  728 Wooley G's
2540.31Jeff Westerheide   Dallas, TX01:03:32 232998  742 Rockwall Cycling
3545.72Bill Petko   Spring, TX01:03:53 377003  729 
4551.13Jacob Garcia   Austin, TX01:05:39 390138  758 Team Wolf
5556.54Martin Rojas   Cedar Park, TX01:05:40 197399  730 
6Brent Armstrong   01:06:35  754 SLORNU
7Jimmy Wheeler   01:07:53  759 
8572.77Lance Holloway   Boise, ID01:09:40 95323  727 Wooley G's
9578.18John Parten   Giddings, TX01:18:48 42968  745 Bicycles Inc.
10Jose De La Rocha   01:42:20  774 Matrix/RBM

Women - SS 2/3 - 0-99

 Place Points NameCity, StateTime USAC #BibTeam
1Melissa White   Houston, TX00:59:51 366057  801 
2Pam Jackson   Garland, TX01:16:30 157028  802 RBM Matrix/ Max Muscle

Women - Pro/Cat 1 - 0-99

 Place Points NameCity, StateTime USAC #BibTeam
1Lisa Uranga   Irving, TX01:22:08 325178  PACC
2Melanie Etherton   Austin, TX01:31:00 271764  Cycle Progression
DNSJen Purcell (Pro)   Austin, TXDNS 193628  MSU/HHH

Women - Cat 1 - 15-18

 Place Points NameCity, StateTime USAC #BibTeam
1Lucy Brown   Houston, TX01:59:17 259584  748 Team Bicycle Sport Shop

Women - Cat 1 - 19-39

 Place Points NameCity, StateTime USAC #BibTeam
1Amy Parkinson   Austin, TX01:31:40 364747  108 Austinbikes

Women - Cat 1 - 40-49

 Place Points NameCity, StateTime USAC #BibTeam
1470.10Jen Ragan-Marlowe   Royse City, TX01:35:17 143436  150 Team Rockwall Cycling
2496.22Maria Hernandez   Reklaw, TX01:39:27 286821  109 
3522.34Patti Plagmann   Spring, TX01:41:38 130335  149 Bike Lane Houston
4548.46Tanya Woody   San Antonio, TX01:44:12 236072  151 Cap Carter Racing
5574.58Pam Jackson   Garland, TX01:48:52 157028  148 RBM Matrix/ Max Muscle
DNSJulia Hart   Dallas, TXDNS 365842  147 Team PACC

Women - Cat 2 - 19-39

 Place Points NameCity, StateTime USAC #BibTeam
1515.78Melissa White   Houston, TX01:31:45 366057  635 
2538.84Sydnei Anderson   Frisco, TX01:46:21 385671  662 PACC
3561.90Carlie Spence   Austin, TX01:48:48 315548  637 Mafia Racing / Felt / PBR
4584.96Dina Pang   Morgans Point Resort, TX01:55:20 274092  642 Cycle Progression

Women - Cat 2 - 40-99

 Place Points NameCity, StateTime USAC #BibTeam
1540.00Lynette Wood   Lindale, TX01:42:27 326040  638 Gears & Beers
2565.00Laura Neighbors   Austin, TX01:43:52 389117  641 Team Bicycle Sport Shop
3590.00Sarah Dougherty   Waco, TX01:53:26 390422  652 
DNFSusan Pollard   Magnolia, TXDNF 368765  636 Bikelane

Women - Cat 3 - 1-10

 Place Points NameCity, StateTime USAC #BibTeam
1528.66Abigail Yates   Rowlett, TX00:20:54 386370  63 Matrix/RBM
2Mackenzie Anderson   00:21:23  527 Bicycles Outback p/b Jubilee Mitsubishi
3Sophie Moore   00:25:07  528 Bicycles Outback
4Teresa Rojas   00:33:59  432 

Women - Cat 3 - 11-12

 Place Points NameCity, StateTime USAC #BibTeam
1540.00Madeleine Bruno   Spring, TX00:36:10 329440  62 Team Bike Lane
2Briona Jones   00:43:27  67 
3Annabelle Dougherty   00:46:11  68 
4Cierra Satterthwaite   00:46:12  88 Matrix RBM

Women - Cat 3 - 13-14

 Place Points NameCity, StateTime USAC #BibTeam
DNFMadeline Boche   Kilgore, TXDNF 385544  816 
DNFKaylee Tredway   DNF  817 RBM/Matrix

Women - Cat 3 - 15-18

 Place Points NameCity, StateTime USAC #BibTeam
1Fiona Dougherty   Waco, TX01:07:42 395467  765 Waco Home School
2Larkin Norris   01:31:01  810 RBM/Matrix/Sachse High School

Women - Cat 3 - 19-39

 Place Points NameCity, StateTime USAC #BibTeam
1Emmylou Layne   01:08:26  812 Bikeland Dev Factory Team
2556.67Mary Hannabass   Austin, TX01:13:36 334900  753 
3Lesli Weinheimer   01:24:49  814 
4Westley Davis   01:32:20  811 
DNSLaurie Simpson   Whitehouse, TXDNS 188679  813 Simpsons Fitnes & Adventure Sports

Women - Cat 3 - 40-99

 Place Points NameCity, StateTime USAC #BibTeam
1540.00Tricia Weir   Dallas, TX01:09:58 272297  815 Matrix/RBM
2Nacy Johnston   01:12:10  757 Team Wooley G's
3Lisa Barnhart   01:15:09  769 Holyspoke Racing

Report missing or incorrect license numbers

Volkswagen
ShimanoBonk BreakerSierra NevadaSpyUSACDF
UCI USA Cycling is the official governing body for all disciplines of competitive cycling in the United States. The 501c3, membership-based organization aims both to achieve sustained success in international cycling competition and to grow competitive cycling in America while delivering an exceptional customer experience.
View Children's Online Privacy Protection Policy
US Olympic Committee